Regional Weather Roundup
Issued by NWS

Home | Current Version | Previous Version | Text Only | Print | Product List | Glossary Off
Versions: 1 2 3 4 5 6 7 8 9 10 11 12 13 14 15 16 17 18 19 20 21 22 23 24 25 26 27 28 29 30 31 32 33 34 35 36 37 38 39 40 41 42 43 44 45 46 47 48 49 50

000
ASUS44 KMEG 300100
RWRTN
TENNESSEE HOURLY STATE WEATHER ROUNDUP
NATIONAL WEATHER SERVICE MEMPHIS TN
800 PM CDT MON JUN 29 2015

TNZ002-004-019-021-049-052-054-088>092-300200-
WEST TENNESSEE

CITY           SKY/WX    TMP DP  RH WIND       PRES   REMARKS
MEMPHIS INTL   PTCLDY    85  69  58 SW6       29.86S
NWS MEMPHIS      N/A     86 N/A N/A MISG        N/A
JACKSON        CLEAR     81  72  74 CALM      29.87R
DYERSBURG        N/A    N/A N/A N/A MISG        N/A
PARIS          CLEAR     73  66  78 S3        29.88R
LEXINGTON      CLEAR     79  72  78 S3        29.88S
$$

TNZ008-025-027-028-033-062-065-066-300200-
NORTH MIDDLE TENNESSEE

CITY           SKY/WX    TMP DP  RH WIND       PRES   REMARKS
NASHVILLE      MOCLDY    81  70  69 S6        29.88R
CLARKSVILLE    MOCLDY    77  72  84 CALM      29.87R
COOKEVILLE     PTCLDY    79  72  78 SW3       29.90S
CROSSVILLE     PTCLDY    75  64  68 S8        29.97R
$$

TNZ061-075-076-078-094-096-097-300200-
SOUTH MIDDLE TENNESSEE

CITY           SKY/WX    TMP DP  RH WIND       PRES   REMARKS
FAYETTEVILLE   PTCLDY    79  64  61 SW5       29.92S
TULLAHOMA      PTCLDY    77  64  65 SW3       29.93S
WINCHESTER     PTCLDY    79  64  61 SW6       29.92F
SHELBYVILLE    PTCLDY    79  70  73 W5        29.92R
$$

TNZ017-018-042-046-047-300200-
NORTHEAST TENNESSEE

CITY           SKY/WX    TMP DP  RH WIND       PRES   REMARKS
TRI CITIES     PTCLDY    77  61  57 SW6       29.95R
$$

TNZ012-013-036-069-073-074-300200-
CENTRAL EAST TENNESSEE

CITY           SKY/WX    TMP DP  RH WIND       PRES   REMARKS
KNOXVILLE      MOCLDY    78  64  61 SW12      29.92R
OAK RIDGE      MOCLDY    81  64  56 VRB5      29.94R
GATLINBURG     PTCLDY    79  61  53 SW7       29.92S
$$

TNZ083-085-099-300200-
SOUTHEAST TENNESSEE

CITY           SKY/WX    TMP DP  RH WIND       PRES   REMARKS
CHATTANOOGA    MOCLDY    82  64  54 S5        29.92S
$$

SKY/WX REPORTED AS FAIR MEANS FEW OR NO CLOUDS BELOW
12 THOUSAND FEET.




USA.gov is the U.S. government's official web portal to all federal, state and local government web resources and services.